Regional Weather Roundup
Issued by NWS

Home | Current Version | Previous Version | Text Only | Print | Product List | Glossary Off
Versions: 1 2 3 4 5 6 7 8 9 10 11 12 13 14 15 16 17 18 19 20 21 22 23 24 25 26 27 28 29 30 31 32 33 34 35 36 37 38 39 40 41 42 43 44 45 46 47 48 49 50

000
ASUS43 KOAX 301002
RWRNE

WEATHER ROUNDUP FOR NEBRASKA
NATIONAL WEATHER SERVICE OMAHA NE
500 AM CDT THU MAR 30 2017

NOTES: SATELLITE DATA IS BEING USED TO AUGMENT CLOUD COVER ABOVE
       12000 FEET.
       "FAIR" INDICATES FEW OR NO CLOUDS BELOW 12,000 FEET WITH NO
       SIGNIFICANT WEATHER AND/OR OBSTRUCTIONS TO VISIBILITY.

  * THESE STATIONS DO NOT REPORT WEATHER SUCH AS RAIN...SNOW OR FOG.

NEZ001>004-019>022-054>056-301100-
NEBRASKA PANHANDLE

CITY           SKY/WX    TMP DP  RH WIND       PRES   REMARKS
SCOTTSBLUFF    CLEAR     33  30  88 NE5       29.83F WCI  29
ALLIANCE       CLEAR     24  22  91 W6        29.83F WCI  17
CHADRON        CLEAR     31  29  92 CALM      29.83F
KIMBALL        CLEAR     33  33 100 W8        29.84F WCI  25
SIDNEY         CLEAR     32  30  92 NW12      29.83F WCI  23
$$

NEZ057>060-069>072-079>082-301100-
SOUTHWEST NEBRASKA

CITY           SKY/WX    TMP DP  RH WIND       PRES   REMARKS
NORTH PLATTE   CLOUDY    39  33  79 N13       29.83F WCI  31
IMPERIAL       CLOUDY    36  34  92 N12       29.85F FOG     WCI  28
LEXINGTON      CLOUDY    38  35  89 N15G26    29.81F WCI  29
MCCOOK         CLOUDY    39  36  89 N17       29.82F WCI  30
OGALLALA       CLOUDY    37  36  96 N3        29.85F FOG
$$

NEZ005>010-023>029-035>040-094-301100-
NORTH CENTRAL NEBRASKA

CITY           SKY/WX    TMP DP  RH WIND       PRES   REMARKS
VALENTINE      CLOUDY    36  33  89 NE9       29.88F WCI  29
AINSWORTH      CLOUDY    36  35  99 NE7       29.87F WCI  30
BROKEN BOW     CLOUDY    36  33  89 N17       29.82F WCI  26
O`NEILL        CLOUDY    37  37  99 N14G22    29.85F FOG     WCI  28
ORD            CLOUDY    37  34  89 N18       29.81F WCI  27
$$

NEZ041-046>049-061>064-073>077-083>087-301100-
SOUTH CENTRAL NEBRASKA

CITY           SKY/WX    TMP DP  RH WIND       PRES   REMARKS
GRAND ISLAND   CLOUDY    37  37 100 N21G35    29.78F WCI  26
AURORA         CLOUDY    37  37 100 N23       29.77R WCI  26
HASTINGS       CLOUDY    38  35  89 N24G32    29.76F WCI  27
HEBRON         CLOUDY    39  37  93 N18G30    29.70R WCI  30
HOLDREGE       CLOUDY    37  35  93 N15G25    29.79F WCI  27
KEARNEY *      CLOUDY    37  32  81 N21       29.79F WCI  27
YORK           CLOUDY    37  37 100 N18G30    29.74S FOG     WCI  27
$$

NEZ011>018-030>034-042>045-301100-
NORTHEAST NEBRASKA

CITY           SKY/WX    TMP DP  RH WIND       PRES   REMARKS
NORFOLK        CLOUDY    38  35  89 N18       29.80S WCI  28
ALBION         CLOUDY    39  36  87 N13       29.81R WCI  32
BLAIR          DRIZZLE   40  39  96 N14       29.69F WCI  33
FREMONT        CLOUDY    40  40 100 N9G16     29.74F FOG     WCI  34
TEKAMAH        LGT RAIN  40  38  93 N16       29.76S FOG     WCI  31
WAYNE          CLOUDY    38  38  99 NE15      29.81S FOG     WCI  30
$$

NEZ050>053-065>068-078-088>093-301100-
SOUTHEAST NEBRASKA

CITY           SKY/WX    TMP DP  RH WIND       PRES   REMARKS
LINCOLN        LGT RAIN  41  40  96 N21       29.71S FOG
OMAHA EPPLEY   DRIZZLE   42  37  82 N14G24    29.70F
BEATRICE       RAIN      41  41  99 N16G24    29.65R
FALLS CITY     LGT RAIN  47  45  93 N13       29.58F
NEBRASKA CITY  DRIZZLE   42  42 100 NE22      29.63S
PLATTSMOUTH    CLOUDY    42  39  90 N14G22    29.65F FOG
$$

NEZ044-045-051>053-067-301100-
OMAHA AREA

CITY           SKY/WX    TMP DP  RH WIND       PRES   REMARKS
OMAHA EPPLEY   DRIZZLE   42  37  82 N14G24    29.70F
BLAIR          DRIZZLE   40  39  96 N14       29.69F WCI  33
FREMONT        CLOUDY    40  40 100 N9G16     29.74F FOG     WCI  34
MILLARD        CLOUDY    43  41  93 NE6       29.69F
OFFUTT AFB     CLOUDY    42  40  93 N15G21    29.68S
PLATTSMOUTH    CLOUDY    42  39  90 N14G22    29.65F FOG
WAHOO          CLOUDY    40  39  95 N18G24    29.72F FOG     WCI  31
$$



USA.gov is the U.S. government's official web portal to all federal, state and local government web resources and services.